Погода в Жондоре

Узбекистан     39°44′26″N   64°10′56″E
темп.,
°C
ветер,
м/с
пор.,
м/с
влажн.,
%
обл.,
%
осадки,
мм/ч
давл.,
гПа
погр.,
м
27 февраля, сб
сб2723:00−2зсз111367 0.0 1030236
02:00−2з1214100 0.0 1029176
05:00−3юз1116100 0.0 1029124
08:00−2ю341587 0.0 1029242
11:00+2ююз451173 0.0 1029639
14:00+5ююз55110 0.0 1028784
17:00+6ююз44110 0.0 1027797
20:00+4ююв23150 0.0 102858
28 февраля, вс
вс2823:00+3юв33170 0.0 102730
02:00+2вюв34170 0.0 102628
05:00+1вюв34200 0.0 102430
08:00+2вюв34330 0.0 102352
11:00+8вюв34241 0.0 1022399
14:00+11вюв322038 0.0 1019686
17:00+12вюв221856 0.0 1018804
20:00+9в2324100 0.0 101824
1 марта, пн
пн123:00+9св342392 0.0 101828
02:00+8вюв342858 0.0 101827
05:00+7юв563929 0.0 101779
08:00+6юв58430 0.0 1018158
11:00+13ю710340 0.0 1017601
14:00+18ююз78190 0.0 1016812
17:00+18юз45150 0.0 10161065
20:00+13сз34311 0.0 101848
2 марта, вт
вт223:00+11ссз343649 0.0 101946
02:00+10с343786 0.0 102024
05:00+9с453587 0.0 101950
08:00+8с333671 0.0 102135
11:00+14с452486 0.0 1021496
14:00+17ссз331952 0.0 10211196
17:00+17сз541829 0.0 10201450
20:00+12ссз6112952 0.0 1021311
3 марта, ср
ср323:00+9с6103826 0.0 1022266
02:00+7с585125 0.0 1021214
05:00+6с585359 0.0 1021219
08:00+7с5650100 0.0 1021215
11:00+11ссв343698 0.0 1021400
14:00+15зюз233151 0.0 10191301
17:00+15зсз323225 0.0 10171186
20:00+12с343761 0.0 1017134